Back to catalog

THORAD DELTA 1 DEB

AliveUNKNOWN
NORAD 42621·DEBRIS·🇺🇸 United States

Launched Nov 15, 1974 from Vandenberg Space Force Base

Loading…

Next Passes (next 24 hours)

TLE

FreshSource: Space-Track

Epoch: Sep 10, 2026, 05:16 UTC

1 42621U 74089GN  26253.21954000 -.00000100  00000-0 -83944-3 0  9996
2 42621 101.0382  35.6706 0374186 101.3184  20.1857 11.85435276553846

Track THORAD DELTA 1 DEB in real time with AllMySat

Download on the App Store